Regional Weather Roundup
Issued by NWS Little Rock, AR

Home | Current Version | Previous Version | Graphics & Text | Print | Product List | Glossary On
Versions: 1 2 3 4 5 6 7 8 9 10 11 12 13 14 15 16 17 18 19 20 21 22 23 24 25 26 27 28 29 30 31 32 33 34 35 36 37 38 39 40 41 42 43 44 45 46 47 48 49 50
000
ASUS44 KLZK 161005
RWRLZK

WEATHER ROUNDUP FOR ARKANSAS
NATIONAL WEATHER SERVICE LITTLE ROCK AR
500 AM CDT TUE SEP 16 2014

NOTE: "FAIR" INDICATES FEW OR NO CLOUDS BELOW 12,000 FEET WITH NO
SIGNIFICANT WEATHER AND/OR OBSTRUCTIONS TO VISIBILITY.

ARZ001-003-010-029-161100-
NORTHWEST ARKANSAS

CITY           SKY/WX    TMP DP  RH WIND       PRES   REMARKS
FAYETTEVILLE   PTCLDY    65  65 100 CALM      30.16S FOG
FORT SMITH     CLEAR     68  66  93 CALM      30.13S FOG
HARRISON       CLOUDY    68  66  93 VRB3      30.16F
BENTONVILLE    CLOUDY    70  66  88 NE6       30.16F
ROGERS         CLOUDY    68  66  93 NE6       30.17F
SILOAM SPGS    CLOUDY    70  64  83 CALM      30.16F
HIGHFILL       CLOUDY    68  67  96 E3        30.16S
$$

ARZ004-005-016-161100-
NORTH CENTRAL ARKANSAS

CITY           SKY/WX    TMP DP  RH WIND       PRES   REMARKS
BATESVILLE     MOCLDY    66  64  94 CALM      30.13S
FLIPPIN        CLOUDY    68  63  83 CALM      30.15S
MTN HOME       CLOUDY    68  66  93 VRB3      30.14F
$$

ARZ040-041-161100-
WEST CENTRAL ARKANSAS

CITY           SKY/WX    TMP DP  RH WIND       PRES   REMARKS
MENA             N/A     70  70 100 CALM        N/A
MOUNT IDA      MOCLDY    69  67  93 CALM      30.11F FOG
$$

ARZ009-017-025-026-028-161100-
NORTHEAST ARKANSAS

CITY           SKY/WX    TMP DP  RH WIND       PRES   REMARKS
CORNING          N/A     66  66 100 N7        30.14R
JONESBORO      PTCLDY    68  66  93 N3        30.11S
NEWPORT        CLEAR     65  65 100 NW8       30.13S
WALNUT RIDGE   CLOUDY    61  61 100 NE8       30.12S
BLYTHEVILLE    CLOUDY    63  63 100 NW3       30.11S
$$

ARZ022-023-033-042-044-161100-
CENTRAL ARKANSAS

CITY           SKY/WX    TMP DP  RH WIND       PRES   REMARKS
LITTLE ROCK    MOCLDY    72  66  81 CALM      30.11F
N LITTLE ROCK    N/A     70  68  93 NW6       30.11F
JACKSONVILLE   CLOUDY    69  67  95 CALM      30.11S
SEARCY         PTCLDY    67  66  96 N5        30.12S
HOT SPRINGS    MOCLDY    69  68  96 W3        30.13R
RUSSELLVILLE   PTCLDY    67  65  93 CALM      30.12F FOG
CLINTON        FOG       64  64 100 CALM      30.14S VSB 1/4
$$

ARZ036-161100-
EAST ARKANSAS

CITY           SKY/WX    TMP DP  RH WIND       PRES   REMARKS
WEST MEMPHIS   MOCLDY    65  65 100 CALM      30.09S
$$

ARZ050-053-066-070-073-161100-
SOUTHWEST ARKANSAS

CITY           SKY/WX    TMP DP  RH WIND       PRES   REMARKS
ARKADELPHIA    FAIR      69  69 100 CALM      30.12S FOG
CAMDEN         CLOUDY    68  66  94 CALM      30.12S FOG
TEXARKANA      CLOUDY    70  70 100 CALM      30.12F FOG
EL DORADO      CLOUDY    69  68  96 NW3       30.11F
DE QUEEN       CLOUDY    69  69 100 CALM      30.10F FOG
$$

ARZ056-057-069-161100-
SOUTHEAST ARKANSAS

CITY           SKY/WX    TMP DP  RH WIND       PRES   REMARKS
PINE BLUFF     CLOUDY    70  68  93 NW3       30.11F
STUTTGART      CLOUDY    70  64  83 NW3       30.12S
MONTICELLO     LGT RAIN  70  68  93 CALM      30.10F

$$





USA.gov is the U.S. government's official web portal to all federal, state and local government web resources and services.